Year,Month,Day,Hour,Minute,Value (Times are PST for temperature in C)
2011,04,18,00,00,2.10
2011,04,18,00,01,2.10
2011,04,18,00,02,2.10
2011,04,18,00,03,2.00
2011,04,18,00,04,2.00
2011,04,18,00,05,2.00
2011,04,18,00,06,2.00
2011,04,18,00,07,1.90
2011,04,18,00,08,1.90
2011,04,18,00,09,1.90
2011,04,18,00,10,1.90
2011,04,18,00,11,1.90
2011,04,18,00,12,1.90
2011,04,18,00,13,1.80
2011,04,18,00,14,1.80
2011,04,18,00,15,1.80
2011,04,18,00,16,1.80
2011,04,18,00,17,1.80
2011,04,18,00,18,1.80
2011,04,18,00,19,1.80
2011,04,18,00,20,1.80
2011,04,18,00,21,1.80
2011,04,18,00,22,1.80
2011,04,18,00,23,1.80
2011,04,18,00,24,1.80
2011,04,18,00,25,1.80
2011,04,18,00,26,1.80
2011,04,18,00,27,1.80
2011,04,18,00,28,1.70
2011,04,18,00,29,1.70
2011,04,18,00,30,1.70
2011,04,18,00,31,1.60
2011,04,18,00,32,1.60
2011,04,18,00,33,1.60
2011,04,18,00,34,1.60
2011,04,18,00,35,1.50
2011,04,18,00,36,1.50
2011,04,18,00,37,1.50
2011,04,18,00,38,1.50
2011,04,18,00,39,1.40
2011,04,18,00,40,1.40
2011,04,18,00,41,1.40
2011,04,18,00,42,1.40
2011,04,18,00,43,1.30
2011,04,18,00,44,1.30
2011,04,18,00,45,1.30
2011,04,18,00,46,1.30
2011,04,18,00,47,1.30
2011,04,18,00,48,1.30
2011,04,18,00,49,1.30
2011,04,18,00,50,1.20
2011,04,18,00,51,1.10
2011,04,18,00,52,1.10
2011,04,18,00,53,1.00
2011,04,18,00,54,1.00
2011,04,18,00,55,1.00
2011,04,18,00,56,0.90
2011,04,18,00,57,0.90
2011,04,18,00,58,0.90
2011,04,18,00,59,0.90
2011,04,18,01,00,0.80
2011,04,18,01,01,0.80
2011,04,18,01,02,0.80
2011,04,18,01,03,0.80
2011,04,18,01,04,0.80
2011,04,18,01,05,0.80
2011,04,18,01,06,0.80
2011,04,18,01,07,0.80
2011,04,18,01,08,0.80
2011,04,18,01,09,0.80
2011,04,18,01,10,0.80
2011,04,18,01,11,0.80
2011,04,18,01,12,0.80
2011,04,18,01,13,0.80
2011,04,18,01,14,0.80
2011,04,18,01,15,0.80
2011,04,18,01,16,0.80
2011,04,18,01,17,0.80
2011,04,18,01,18,0.80
2011,04,18,01,19,0.80
2011,04,18,01,20,0.80
2011,04,18,01,21,0.80
2011,04,18,01,22,0.80
2011,04,18,01,23,0.80
2011,04,18,01,24,0.80
2011,04,18,01,25,0.80
2011,04,18,01,26,0.80
2011,04,18,01,27,0.80
2011,04,18,01,28,0.80
2011,04,18,01,29,0.80
2011,04,18,01,30,0.80
2011,04,18,01,31,0.80
2011,04,18,01,32,0.80
2011,04,18,01,33,0.80
2011,04,18,01,34,0.80
2011,04,18,01,35,0.80
2011,04,18,01,36,0.80
2011,04,18,01,37,0.80
2011,04,18,01,38,0.80
2011,04,18,01,39,0.80
2011,04,18,01,40,0.80
2011,04,18,01,41,0.80
2011,04,18,01,42,0.70
2011,04,18,01,43,0.70
2011,04,18,01,44,0.70
2011,04,18,01,45,0.70
2011,04,18,01,46,0.70
2011,04,18,01,47,0.70
2011,04,18,01,48,0.70
2011,04,18,01,49,0.70
2011,04,18,01,50,0.70
2011,04,18,01,51,0.70
2011,04,18,01,52,0.70
2011,04,18,01,53,0.70
2011,04,18,01,54,0.80
2011,04,18,01,55,0.80
2011,04,18,01,56,0.80
2011,04,18,01,57,0.80
2011,04,18,01,58,0.80
2011,04,18,01,59,0.80
2011,04,18,02,00,0.80
2011,04,18,02,01,0.80
2011,04,18,02,02,0.80
2011,04,18,02,03,0.80
2011,04,18,02,04,0.80
2011,04,18,02,05,0.80
2011,04,18,02,06,0.80
2011,04,18,02,07,0.80
2011,04,18,02,08,0.80
2011,04,18,02,09,0.80
2011,04,18,02,10,0.80
2011,04,18,02,11,0.80
2011,04,18,02,12,0.80
2011,04,18,02,13,0.80
2011,04,18,02,14,0.80
2011,04,18,02,15,0.80
2011,04,18,02,16,0.80
2011,04,18,02,17,0.80
2011,04,18,02,18,0.80
2011,04,18,02,19,0.80
2011,04,18,02,20,0.80
2011,04,18,02,21,0.80
2011,04,18,02,22,0.80
2011,04,18,02,23,0.80
2011,04,18,02,24,0.80
2011,04,18,02,25,0.80
2011,04,18,02,26,0.80
2011,04,18,02,27,0.80
2011,04,18,02,28,0.80
2011,04,18,02,29,0.80
2011,04,18,02,30,0.80
2011,04,18,02,31,0.80
2011,04,18,02,32,0.80
2011,04,18,02,33,0.80
2011,04,18,02,34,0.80
2011,04,18,02,35,0.80
2011,04,18,02,36,0.80
2011,04,18,02,37,0.80
2011,04,18,02,38,0.80
2011,04,18,02,39,0.70
2011,04,18,02,40,0.70
2011,04,18,02,41,0.70
2011,04,18,02,42,0.70
2011,04,18,02,43,0.70
2011,04,18,02,44,0.70
2011,04,18,02,45,0.70
2011,04,18,02,46,0.70
2011,04,18,02,47,0.70
2011,04,18,02,48,0.70
2011,04,18,02,49,0.70
2011,04,18,02,50,0.70
2011,04,18,02,51,0.60
2011,04,18,02,52,0.60
2011,04,18,02,53,0.60
2011,04,18,02,54,0.60
2011,04,18,02,55,0.60
2011,04,18,02,56,0.60
2011,04,18,02,57,0.60
2011,04,18,02,58,0.60
2011,04,18,02,59,0.60
2011,04,18,03,00,0.50
2011,04,18,03,01,0.50
2011,04,18,03,02,0.50
2011,04,18,03,03,0.50
2011,04,18,03,04,0.50
2011,04,18,03,05,0.50
2011,04,18,03,06,0.50
2011,04,18,03,07,0.50
2011,04,18,03,08,0.50
2011,04,18,03,09,0.50
2011,04,18,03,10,0.50
2011,04,18,03,11,0.50
2011,04,18,03,12,0.50
2011,04,18,03,13,0.50
2011,04,18,03,14,0.50
2011,04,18,03,15,0.50
2011,04,18,03,16,0.50
2011,04,18,03,17,0.50
2011,04,18,03,18,0.50
2011,04,18,03,19,0.50
2011,04,18,03,20,0.50
2011,04,18,03,21,0.50
2011,04,18,03,22,0.50
2011,04,18,03,23,0.50
2011,04,18,03,24,0.50
2011,04,18,03,25,0.50
2011,04,18,03,26,0.50
2011,04,18,03,27,0.50
2011,04,18,03,28,0.40
2011,04,18,03,29,0.40
2011,04,18,03,30,0.40
2011,04,18,03,31,0.40
2011,04,18,03,32,0.40
2011,04,18,03,33,0.40
2011,04,18,03,34,0.40
2011,04,18,03,35,0.40
2011,04,18,03,36,0.30
2011,04,18,03,37,0.30
2011,04,18,03,38,0.30
2011,04,18,03,39,0.20
2011,04,18,03,40,0.20
2011,04,18,03,41,0.20
2011,04,18,03,42,0.20
2011,04,18,03,43,0.10
2011,04,18,03,44,0.10
2011,04,18,03,45,0.10
2011,04,18,03,46,0.10
2011,04,18,03,47,0.10
2011,04,18,03,48,0.10
2011,04,18,03,49,0.10
2011,04,18,03,50,0.10
2011,04,18,03,51,0.10
2011,04,18,03,52,0.10
2011,04,18,03,53,0.10
2011,04,18,03,54,0.10
2011,04,18,03,55,0.10
2011,04,18,03,56,0.20
2011,04,18,03,57,0.20
2011,04,18,03,58,0.20
2011,04,18,03,59,0.20
2011,04,18,04,00,0.20
2011,04,18,04,01,0.20
2011,04,18,04,02,0.20
2011,04,18,04,03,0.20
2011,04,18,04,04,0.20
2011,04,18,04,05,0.30
2011,04,18,04,06,0.30
2011,04,18,04,07,0.30
2011,04,18,04,08,0.30
2011,04,18,04,09,0.30
2011,04,18,04,10,0.40
2011,04,18,04,11,0.40
2011,04,18,04,12,0.40
2011,04,18,04,13,0.40
2011,04,18,04,14,0.40
2011,04,18,04,15,0.40
2011,04,18,04,16,0.40
2011,04,18,04,17,0.40
2011,04,18,04,18,0.40
2011,04,18,04,19,0.40
2011,04,18,04,20,0.40
2011,04,18,04,21,0.40
2011,04,18,04,22,0.40
2011,04,18,04,23,0.40
2011,04,18,04,24,0.40
2011,04,18,04,25,0.40
2011,04,18,04,26,0.40
2011,04,18,04,27,0.40
2011,04,18,04,28,0.40
2011,04,18,04,29,0.40
2011,04,18,04,30,0.30
2011,04,18,04,31,0.30
2011,04,18,04,32,0.30
2011,04,18,04,33,0.20
2011,04,18,04,34,0.20
2011,04,18,04,35,0.20
2011,04,18,04,36,0.20
2011,04,18,04,37,0.10
2011,04,18,04,38,0.10
2011,04,18,04,39,0.10
2011,04,18,04,40,0.10
2011,04,18,04,41,0.10
2011,04,18,04,42,0.10
2011,04,18,04,43,0.10
2011,04,18,04,44,0.10
2011,04,18,04,45,0.10
2011,04,18,04,46,0.10
2011,04,18,04,47,0.10
2011,04,18,04,48,0.10
2011,04,18,04,49,0.10
2011,04,18,04,50,0.20
2011,04,18,04,51,0.20
2011,04,18,04,52,0.20
2011,04,18,04,53,0.10
2011,04,18,04,54,0.10
2011,04,18,04,55,0.10
2011,04,18,04,56,0.10
2011,04,18,04,57,0.10
2011,04,18,04,58,0.10
2011,04,18,04,59,0.10
2011,04,18,05,00,0.10
2011,04,18,05,01,0.10
2011,04,18,05,02,0.10
2011,04,18,05,03,0.10
2011,04,18,05,04,0.10
2011,04,18,05,05,0.10
2011,04,18,05,06,0.10
2011,04,18,05,07,0.10
2011,04,18,05,08,0.10
2011,04,18,05,09,0.10
2011,04,18,05,10,0.00
2011,04,18,05,11,-0.10
2011,04,18,05,12,-0.10
2011,04,18,05,13,-0.10
2011,04,18,05,14,-0.10
2011,04,18,05,15,-0.10
2011,04,18,05,16,-0.10
2011,04,18,05,17,-0.10
2011,04,18,05,18,-0.10
2011,04,18,05,19,-0.10
2011,04,18,05,20,-0.10
2011,04,18,05,21,-0.10
2011,04,18,05,22,-0.10
2011,04,18,05,23,-0.10
2011,04,18,05,24,-0.10
2011,04,18,05,25,-0.10
2011,04,18,05,26,-0.10
2011,04,18,05,27,-0.10
2011,04,18,05,28,-0.10
2011,04,18,05,29,0.10
2011,04,18,05,30,0.10
2011,04,18,05,31,0.10
2011,04,18,05,32,0.10
2011,04,18,05,33,0.10
2011,04,18,05,34,0.20
2011,04,18,05,35,0.20
2011,04,18,05,36,0.20
2011,04,18,05,37,0.10
2011,04,18,05,38,0.10
2011,04,18,05,39,0.10
2011,04,18,05,40,0.10
2011,04,18,05,41,0.10
2011,04,18,05,42,0.10
2011,04,18,05,43,0.10
2011,04,18,05,44,0.10
2011,04,18,05,45,0.10
2011,04,18,05,46,0.10
2011,04,18,05,47,0.10
2011,04,18,05,48,0.10
2011,04,18,05,49,0.00
2011,04,18,05,50,-0.10
2011,04,18,05,51,-0.10
2011,04,18,05,52,-0.10
2011,04,18,05,53,-0.10
2011,04,18,05,54,-0.10
2011,04,18,05,55,-0.10
2011,04,18,05,56,-0.10
2011,04,18,05,57,-0.10
2011,04,18,05,58,-0.10
2011,04,18,05,59,0.00
2011,04,18,06,00,0.10
2011,04,18,06,01,0.10
2011,04,18,06,02,0.10
2011,04,18,06,03,0.10
2011,04,18,06,04,0.10
2011,04,18,06,05,0.10
2011,04,18,06,06,0.10
2011,04,18,06,07,0.10
2011,04,18,06,08,0.10
2011,04,18,06,09,0.10
2011,04,18,06,10,0.10
2011,04,18,06,11,0.10
2011,04,18,06,12,0.10
2011,04,18,06,13,0.10
2011,04,18,06,14,0.20
2011,04,18,06,15,0.20
2011,04,18,06,16,0.20
2011,04,18,06,17,0.30
2011,04,18,06,18,0.40
2011,04,18,06,19,0.40
2011,04,18,06,20,0.40
2011,04,18,06,21,0.40
2011,04,18,06,22,0.50
2011,04,18,06,23,0.50
2011,04,18,06,24,0.50
2011,04,18,06,25,0.50
2011,04,18,06,26,0.50
2011,04,18,06,27,0.50
2011,04,18,06,28,0.50
2011,04,18,06,29,0.50
2011,04,18,06,30,0.50
2011,04,18,06,31,0.50
2011,04,18,06,32,0.50
2011,04,18,06,33,0.50
2011,04,18,06,34,0.40
2011,04,18,06,35,0.40
2011,04,18,06,36,0.40
2011,04,18,06,37,0.40
2011,04,18,06,38,0.40
2011,04,18,06,39,0.40
2011,04,18,06,40,0.40
2011,04,18,06,41,0.40
2011,04,18,06,42,0.40
2011,04,18,06,43,0.40
2011,04,18,06,44,0.30
2011,04,18,06,45,0.30
2011,04,18,06,46,0.30
2011,04,18,06,47,0.40
2011,04,18,06,48,0.40
2011,04,18,06,49,0.40
2011,04,18,06,50,0.40
2011,04,18,06,51,0.40
2011,04,18,06,52,0.40
2011,04,18,06,53,0.40
2011,04,18,06,54,0.40
2011,04,18,06,55,0.40
2011,04,18,06,56,0.40
2011,04,18,06,57,0.40
2011,04,18,06,58,0.40
2011,04,18,06,59,0.40
2011,04,18,07,00,0.40
2011,04,18,07,01,0.40
2011,04,18,07,02,0.40
2011,04,18,07,03,0.40
2011,04,18,07,04,0.40
2011,04,18,07,05,0.40
2011,04,18,07,06,0.40
2011,04,18,07,07,0.50
2011,04,18,07,08,0.50
2011,04,18,07,09,0.50
2011,04,18,07,10,0.50
2011,04,18,07,11,0.50
2011,04,18,07,12,0.60
2011,04,18,07,13,0.60
2011,04,18,07,14,0.60
2011,04,18,07,15,0.60
2011,04,18,07,16,0.60
2011,04,18,07,17,0.70
2011,04,18,07,18,0.70
2011,04,18,07,19,0.70
2011,04,18,07,20,0.80
2011,04,18,07,21,0.80
2011,04,18,07,22,0.80
2011,04,18,07,23,0.80
2011,04,18,07,24,0.80
2011,04,18,07,25,0.80
2011,04,18,07,26,0.80
2011,04,18,07,27,0.80
2011,04,18,07,28,0.90
2011,04,18,07,29,0.90
2011,04,18,07,30,0.90
2011,04,18,07,31,1.00
2011,04,18,07,32,1.00
2011,04,18,07,33,1.00
2011,04,18,07,34,1.00
2011,04,18,07,35,1.10
2011,04,18,07,36,1.10
2011,04,18,07,37,1.10
2011,04,18,07,38,1.20
2011,04,18,07,39,1.20
2011,04,18,07,40,1.20
2011,04,18,07,41,1.30
2011,04,18,07,42,1.30
2011,04,18,07,43,1.30
2011,04,18,07,44,1.40
2011,04,18,07,45,1.40
2011,04,18,07,46,1.50
2011,04,18,07,47,1.50
2011,04,18,07,48,1.60
2011,04,18,07,49,1.60
2011,04,18,07,50,1.70
2011,04,18,07,51,1.80
2011,04,18,07,52,1.90
2011,04,18,07,53,1.90
2011,04,18,07,54,2.00
2011,04,18,07,55,2.10
2011,04,18,07,56,2.20
2011,04,18,07,57,2.30
2011,04,18,07,58,2.40
2011,04,18,07,59,2.50
2011,04,18,08,00,2.60
2011,04,18,08,01,2.80
2011,04,18,08,02,2.90
2011,04,18,08,03,3.00
2011,04,18,08,04,3.20
2011,04,18,08,05,3.30
2011,04,18,08,06,3.40
2011,04,18,08,07,3.50
2011,04,18,08,08,3.60
2011,04,18,08,09,3.60
2011,04,18,08,10,3.70
2011,04,18,08,11,3.80
2011,04,18,08,12,3.80
2011,04,18,08,13,3.90
2011,04,18,08,14,3.90
2011,04,18,08,15,4.00
2011,04,18,08,16,4.00
2011,04,18,08,17,4.10
2011,04,18,08,18,4.20
2011,04,18,08,19,4.30
2011,04,18,08,20,4.40
2011,04,18,08,21,4.50
2011,04,18,08,22,4.50
2011,04,18,08,23,4.60
2011,04,18,08,24,4.70
2011,04,18,08,25,4.80
2011,04,18,08,26,4.80
2011,04,18,08,27,4.90
2011,04,18,08,28,4.90
2011,04,18,08,29,5.00
2011,04,18,08,30,5.10
2011,04,18,08,31,5.20
2011,04,18,08,32,5.30
2011,04,18,08,33,5.40
2011,04,18,08,34,5.40
2011,04,18,08,35,5.40
2011,04,18,08,36,5.50
2011,04,18,08,37,5.60
2011,04,18,08,38,5.70
2011,04,18,08,39,5.80
2011,04,18,08,40,5.90
2011,04,18,08,41,6.00
2011,04,18,08,42,6.00
2011,04,18,08,43,6.10
2011,04,18,08,44,6.10
2011,04,18,08,45,6.10
2011,04,18,08,46,6.20
2011,04,18,08,47,6.20
2011,04,18,08,48,6.20
2011,04,18,08,49,6.20
2011,04,18,08,50,6.20
2011,04,18,08,51,6.20
2011,04,18,08,52,6.20
2011,04,18,08,53,6.30
2011,04,18,08,54,6.30
2011,04,18,08,55,6.30
2011,04,18,08,56,6.40
2011,04,18,08,57,6.40
2011,04,18,08,58,6.40
2011,04,18,08,59,6.50
2011,04,18,09,00,6.60
2011,04,18,09,01,6.70
2011,04,18,09,02,6.80
2011,04,18,09,03,6.80
2011,04,18,09,04,6.90
2011,04,18,09,05,7.00
2011,04,18,09,06,7.20
2011,04,18,09,07,7.30
2011,04,18,09,08,7.30
2011,04,18,09,09,7.30
2011,04,18,09,10,7.30
2011,04,18,09,11,7.40
2011,04,18,09,12,7.50
2011,04,18,09,13,7.50
2011,04,18,09,14,7.50
2011,04,18,09,15,7.60
2011,04,18,09,16,7.60
2011,04,18,09,17,7.70
2011,04,18,09,18,7.70
2011,04,18,09,19,7.70
2011,04,18,09,20,7.80
2011,04,18,09,21,7.80
2011,04,18,09,22,7.70
2011,04,18,09,23,7.70
2011,04,18,09,24,7.70
2011,04,18,09,25,7.70
2011,04,18,09,26,7.70
2011,04,18,09,27,7.80
2011,04,18,09,28,7.90
2011,04,18,09,29,7.90
2011,04,18,09,30,8.00
2011,04,18,09,31,8.10
2011,04,18,09,32,8.20
2011,04,18,09,33,8.20
2011,04,18,09,34,8.20
2011,04,18,09,35,8.10
2011,04,18,09,36,8.10
2011,04,18,09,37,8.10
2011,04,18,09,38,8.00
2011,04,18,09,39,8.00
2011,04,18,09,40,8.00
2011,04,18,09,41,8.00
2011,04,18,09,42,7.90
2011,04,18,09,43,8.00
2011,04,18,09,44,8.20
2011,04,18,09,45,8.30
2011,04,18,09,46,8.40
2011,04,18,09,47,8.50
2011,04,18,09,48,8.60
2011,04,18,09,49,8.70
2011,04,18,09,50,8.90
2011,04,18,09,51,8.90
2011,04,18,09,52,8.90
2011,04,18,09,53,8.90
2011,04,18,09,54,8.90
2011,04,18,09,55,8.80
2011,04,18,09,56,8.80
2011,04,18,09,57,8.80
2011,04,18,09,58,8.70
2011,04,18,09,59,8.80
2011,04,18,10,00,8.70
2011,04,18,10,01,8.80
2011,04,18,10,02,8.90
2011,04,18,10,03,8.90
2011,04,18,10,04,8.90
2011,04,18,10,05,8.90
2011,04,18,10,06,8.90
2011,04,18,10,07,9.00
2011,04,18,10,08,9.00
2011,04,18,10,09,9.00
2011,04,18,10,10,8.90
2011,04,18,10,11,8.80
2011,04,18,10,12,8.70
2011,04,18,10,13,8.70
2011,04,18,10,14,8.70
2011,04,18,10,15,8.70
2011,04,18,10,16,8.70
2011,04,18,10,17,8.80
2011,04,18,10,18,8.80
2011,04,18,10,19,8.90
2011,04,18,10,20,8.90
2011,04,18,10,21,9.00
2011,04,18,10,22,9.00
2011,04,18,10,23,9.10
2011,04,18,10,24,9.20
2011,04,18,10,25,9.30
2011,04,18,10,26,9.40
2011,04,18,10,27,9.40
2011,04,18,10,28,9.30
2011,04,18,10,29,9.20
2011,04,18,10,30,9.10
2011,04,18,10,31,9.10
2011,04,18,10,32,9.10
2011,04,18,10,33,9.20
2011,04,18,10,34,9.20
2011,04,18,10,35,9.10
2011,04,18,10,36,9.00
2011,04,18,10,37,8.90
2011,04,18,10,38,8.80
2011,04,18,10,39,8.90
2011,04,18,10,40,8.90
2011,04,18,10,41,8.90
2011,04,18,10,42,8.90
2011,04,18,10,43,9.00
2011,04,18,10,44,9.20
2011,04,18,10,45,9.30
2011,04,18,10,46,9.50
2011,04,18,10,47,9.60
2011,04,18,10,48,9.60
2011,04,18,10,49,9.70
2011,04,18,10,50,9.70
2011,04,18,10,51,9.70
2011,04,18,10,52,9.80
2011,04,18,10,53,9.90
2011,04,18,10,54,9.90
2011,04,18,10,55,9.90
2011,04,18,10,56,9.90
2011,04,18,10,57,9.90
2011,04,18,10,58,9.90
2011,04,18,10,59,9.80
2011,04,18,11,00,9.70
2011,04,18,11,01,9.70
2011,04,18,11,02,9.70
2011,04,18,11,03,9.80
2011,04,18,11,04,9.90
2011,04,18,11,05,9.90
2011,04,18,11,06,9.90
2011,04,18,11,07,9.90
2011,04,18,11,08,9.90
2011,04,18,11,09,9.90
2011,04,18,11,10,9.80
2011,04,18,11,11,9.80
2011,04,18,11,12,9.70
2011,04,18,11,13,9.70
2011,04,18,11,14,9.70
2011,04,18,11,15,9.70
2011,04,18,11,16,9.70
2011,04,18,11,17,9.70
2011,04,18,11,18,9.80
2011,04,18,11,19,9.70
2011,04,18,11,20,9.70
2011,04,18,11,21,9.80
2011,04,18,11,22,9.70
2011,04,18,11,23,9.70
2011,04,18,11,24,9.70
2011,04,18,11,25,9.50
2011,04,18,11,26,9.40
2011,04,18,11,27,9.30
2011,04,18,11,28,9.30
2011,04,18,11,29,9.20
2011,04,18,11,30,9.20
2011,04,18,11,31,9.10
2011,04,18,11,32,9.10
2011,04,18,11,33,9.20
2011,04,18,11,34,9.20
2011,04,18,11,35,9.20
2011,04,18,11,36,9.10
2011,04,18,11,37,8.80
2011,04,18,11,38,8.70
2011,04,18,11,39,8.50
2011,04,18,11,40,8.50
2011,04,18,11,41,8.60
2011,04,18,11,42,8.80
2011,04,18,11,43,8.90
2011,04,18,11,44,8.90
2011,04,18,11,45,8.90
2011,04,18,11,46,8.90
2011,04,18,11,47,8.80
2011,04,18,11,48,8.90
2011,04,18,11,49,8.80
2011,04,18,11,50,8.80
2011,04,18,11,51,8.70
2011,04,18,11,52,8.70
2011,04,18,11,53,8.70
2011,04,18,11,54,8.70
2011,04,18,11,55,8.70
2011,04,18,11,56,8.70
2011,04,18,11,57,8.70
2011,04,18,11,58,8.70
2011,04,18,11,59,8.70
2011,04,18,12,00,8.70
2011,04,18,12,01,8.80
2011,04,18,12,02,8.80
2011,04,18,12,03,8.80
2011,04,18,12,04,8.90
2011,04,18,12,05,8.90
2011,04,18,12,06,8.90
2011,04,18,12,07,8.90
2011,04,18,12,08,8.70
2011,04,18,12,09,8.70
2011,04,18,12,10,8.60
2011,04,18,12,11,8.60
2011,04,18,12,12,8.60
2011,04,18,12,13,8.60
2011,04,18,12,14,8.60
2011,04,18,12,15,8.60
2011,04,18,12,16,8.70
2011,04,18,12,17,8.70
2011,04,18,12,18,8.70
2011,04,18,12,19,8.80
2011,04,18,12,20,8.90
2011,04,18,12,21,8.90
2011,04,18,12,22,8.80
2011,04,18,12,23,8.70
2011,04,18,12,24,8.70
2011,04,18,12,25,8.70
2011,04,18,12,26,8.60
2011,04,18,12,27,8.40
2011,04,18,12,28,8.40
2011,04,18,12,29,8.30
2011,04,18,12,30,8.30
2011,04,18,12,31,8.40
2011,04,18,12,32,8.40
2011,04,18,12,33,8.50
2011,04,18,12,34,8.50
2011,04,18,12,35,8.60
2011,04,18,12,36,8.50
2011,04,18,12,37,8.50
2011,04,18,12,38,8.40
2011,04,18,12,39,8.30
2011,04,18,12,40,8.30
2011,04,18,12,41,8.30
2011,04,18,12,42,8.20
2011,04,18,12,43,8.20
2011,04,18,12,44,8.20
2011,04,18,12,45,8.20
2011,04,18,12,46,8.20
2011,04,18,12,47,8.30
2011,04,18,12,48,8.30
2011,04,18,12,49,8.40
2011,04,18,12,50,8.40
2011,04,18,12,51,8.40
2011,04,18,12,52,8.50
2011,04,18,12,53,8.50
2011,04,18,12,54,8.60
2011,04,18,12,55,8.70
2011,04,18,12,56,8.70
2011,04,18,12,57,8.80
2011,04,18,12,58,8.80
2011,04,18,12,59,8.80
2011,04,18,13,00,8.80
2011,04,18,13,01,8.80
2011,04,18,13,02,8.70
2011,04,18,13,03,8.70
2011,04,18,13,04,8.70
2011,04,18,13,05,8.70
2011,04,18,13,06,8.70
2011,04,18,13,07,8.80
2011,04,18,13,08,8.90
2011,04,18,13,09,8.90
2011,04,18,13,10,8.80
2011,04,18,13,11,8.70
2011,04,18,13,12,8.80
2011,04,18,13,13,8.70
2011,04,18,13,14,8.80
2011,04,18,13,15,8.80
2011,04,18,13,16,8.90
2011,04,18,13,17,8.90
2011,04,18,13,18,8.90
2011,04,18,13,19,8.90
2011,04,18,13,20,8.90
2011,04,18,13,21,8.90
2011,04,18,13,22,9.00
2011,04,18,13,23,9.10
2011,04,18,13,24,9.20
2011,04,18,13,25,9.20
2011,04,18,13,26,9.20
2011,04,18,13,27,9.40
2011,04,18,13,28,9.40
2011,04,18,13,29,9.50
2011,04,18,13,30,9.50
2011,04,18,13,31,9.70
2011,04,18,13,32,9.70
2011,04,18,13,33,9.70
2011,04,18,13,34,9.80
2011,04,18,13,35,9.90
2011,04,18,13,36,9.90
2011,04,18,13,37,9.90
2011,04,18,13,38,9.90
2011,04,18,13,39,9.80
2011,04,18,13,40,9.80
2011,04,18,13,41,9.70
2011,04,18,13,42,9.70
2011,04,18,13,43,9.70
2011,04,18,13,44,9.60
2011,04,18,13,45,9.50
2011,04,18,13,46,9.50
2011,04,18,13,47,9.40
2011,04,18,13,48,9.40
2011,04,18,13,49,9.40
2011,04,18,13,50,9.30
2011,04,18,13,51,9.30
2011,04,18,13,52,9.20
2011,04,18,13,53,9.20
2011,04,18,13,54,9.20
2011,04,18,13,55,9.10
2011,04,18,13,56,9.00
2011,04,18,13,57,9.00
2011,04,18,13,58,8.90
2011,04,18,13,59,8.80
2011,04,18,14,00,8.80
2011,04,18,14,01,8.80
2011,04,18,14,02,8.90
2011,04,18,14,03,8.90
2011,04,18,14,04,8.90
2011,04,18,14,05,9.00
2011,04,18,14,06,9.10
2011,04,18,14,07,9.10
2011,04,18,14,08,9.20
2011,04,18,14,09,9.20
2011,04,18,14,10,9.20
2011,04,18,14,11,9.20
2011,04,18,14,12,9.20
2011,04,18,14,13,9.10
2011,04,18,14,14,9.00
2011,04,18,14,15,9.00
2011,04,18,14,16,8.90
2011,04,18,14,17,8.90
2011,04,18,14,18,8.90
2011,04,18,14,19,8.90
2011,04,18,14,20,8.90
2011,04,18,14,21,8.90
2011,04,18,14,22,9.00
2011,04,18,14,23,9.10
2011,04,18,14,24,9.20
2011,04,18,14,25,9.30
2011,04,18,14,26,9.40
2011,04,18,14,27,9.40
2011,04,18,14,28,9.50
2011,04,18,14,29,9.50
2011,04,18,14,30,9.60
2011,04,18,14,31,9.60
2011,04,18,14,32,9.60
2011,04,18,14,33,9.60
2011,04,18,14,34,9.60
2011,04,18,14,35,9.60
2011,04,18,14,36,9.60
2011,04,18,14,37,9.70
2011,04,18,14,38,9.70
2011,04,18,14,39,9.70
2011,04,18,14,40,9.70
2011,04,18,14,41,9.80
2011,04,18,14,42,9.80
2011,04,18,14,43,9.80
2011,04,18,14,44,9.80
2011,04,18,14,45,9.80
2011,04,18,14,46,9.80
2011,04,18,14,47,9.80
2011,04,18,14,48,9.80
2011,04,18,14,49,9.80
2011,04,18,14,50,9.70
2011,04,18,14,51,9.70
2011,04,18,14,52,9.70
2011,04,18,14,53,9.70
2011,04,18,14,54,9.70
2011,04,18,14,55,9.70
2011,04,18,14,56,9.70
2011,04,18,14,57,9.70
2011,04,18,14,58,9.70
2011,04,18,14,59,9.70
2011,04,18,15,00,9.70
2011,04,18,15,01,9.70
2011,04,18,15,02,9.70
2011,04,18,15,03,9.70
2011,04,18,15,04,9.70
2011,04,18,15,05,9.70
2011,04,18,15,06,9.70
2011,04,18,15,07,9.70
2011,04,18,15,08,9.80
2011,04,18,15,09,9.80
2011,04,18,15,10,9.90
2011,04,18,15,11,9.90
2011,04,18,15,12,9.90
2011,04,18,15,13,9.90
2011,04,18,15,14,9.90
2011,04,18,15,15,9.90
2011,04,18,15,16,9.90
2011,04,18,15,17,9.80
2011,04,18,15,18,9.80
2011,04,18,15,19,9.80
2011,04,18,15,20,9.70
2011,04,18,15,21,9.70
2011,04,18,15,22,9.70
2011,04,18,15,23,9.60
2011,04,18,15,24,9.50
2011,04,18,15,25,9.50
2011,04,18,15,26,9.40
2011,04,18,15,27,9.40
2011,04,18,15,28,9.30
2011,04,18,15,29,9.30
2011,04,18,15,30,9.30
2011,04,18,15,31,9.30
2011,04,18,15,32,9.20
2011,04,18,15,33,9.20
2011,04,18,15,34,9.20
2011,04,18,15,35,9.20
2011,04,18,15,36,9.10
2011,04,18,15,37,9.00
2011,04,18,15,38,8.90
2011,04,18,15,39,8.90
2011,04,18,15,40,8.80
2011,04,18,15,41,8.80
2011,04,18,15,42,8.80
2011,04,18,15,43,8.80
2011,04,18,15,44,8.80
2011,04,18,15,45,8.80
2011,04,18,15,46,8.80
2011,04,18,15,47,8.90
2011,04,18,15,48,8.90
2011,04,18,15,49,9.00
2011,04,18,15,50,9.00
2011,04,18,15,51,9.00
2011,04,18,15,52,9.00
2011,04,18,15,53,9.00
2011,04,18,15,54,9.10
2011,04,18,15,55,9.10
2011,04,18,15,56,9.20
2011,04,18,15,57,9.20
2011,04,18,15,58,9.30
2011,04,18,15,59,9.30
2011,04,18,16,00,9.40
2011,04,18,16,01,9.50
2011,04,18,16,02,9.70
2011,04,18,16,03,9.70
2011,04,18,16,04,9.80
2011,04,18,16,05,10.00
2011,04,18,16,06,10.20
2011,04,18,16,07,10.30
2011,04,18,16,08,10.40
2011,04,18,16,09,10.40
2011,04,18,16,10,10.50
2011,04,18,16,11,10.60
2011,04,18,16,12,10.70
2011,04,18,16,13,10.70
2011,04,18,16,14,10.60
2011,04,18,16,15,10.50
2011,04,18,16,16,10.40
2011,04,18,16,17,10.40
2011,04,18,16,18,10.40
2011,04,18,16,19,10.40
2011,04,18,16,20,10.40
2011,04,18,16,21,10.30
2011,04,18,16,22,10.30
2011,04,18,16,23,10.30
2011,04,18,16,24,10.30
2011,04,18,16,25,10.20
2011,04,18,16,26,10.20
2011,04,18,16,27,10.20
2011,04,18,16,28,10.30
2011,04,18,16,29,10.40
2011,04,18,16,30,10.40
2011,04,18,16,31,10.40
2011,04,18,16,32,10.40
2011,04,18,16,33,10.40
2011,04,18,16,34,10.60
2011,04,18,16,35,10.60
2011,04,18,16,36,10.60
2011,04,18,16,37,10.70
2011,04,18,16,38,10.70
2011,04,18,16,39,10.80
2011,04,18,16,40,10.90
2011,04,18,16,41,10.90
2011,04,18,16,42,10.90
2011,04,18,16,43,10.90
2011,04,18,16,44,10.90
2011,04,18,16,45,10.80
2011,04,18,16,46,10.70
2011,04,18,16,47,10.70
2011,04,18,16,48,10.70
2011,04,18,16,49,10.70
2011,04,18,16,50,10.80
2011,04,18,16,51,10.80
2011,04,18,16,52,10.80
2011,04,18,16,53,10.90
2011,04,18,16,54,10.90
2011,04,18,16,55,10.80
2011,04,18,16,56,10.80
2011,04,18,16,57,10.70
2011,04,18,16,58,10.70
2011,04,18,16,59,10.60
2011,04,18,17,00,10.60
2011,04,18,17,01,10.50
2011,04,18,17,02,10.40
2011,04,18,17,03,10.60
2011,04,18,17,04,10.60
2011,04,18,17,05,10.60
2011,04,18,17,06,10.70
2011,04,18,17,07,10.80
2011,04,18,17,08,10.90
2011,04,18,17,09,10.90
2011,04,18,17,10,10.90
2011,04,18,17,11,10.90
2011,04,18,17,12,10.90
2011,04,18,17,13,10.90
2011,04,18,17,14,10.90
2011,04,18,17,15,10.90
2011,04,18,17,16,10.90
2011,04,18,17,17,10.80
2011,04,18,17,18,10.80
2011,04,18,17,19,10.70
2011,04,18,17,20,10.60
2011,04,18,17,21,10.60
2011,04,18,17,22,10.60
2011,04,18,17,23,10.60
2011,04,18,17,24,10.60
2011,04,18,17,25,10.70
2011,04,18,17,26,10.70
2011,04,18,17,27,10.80
2011,04,18,17,28,10.80
2011,04,18,17,29,10.90
2011,04,18,17,30,10.90
2011,04,18,17,31,11.00
2011,04,18,17,32,11.10
2011,04,18,17,33,11.10
2011,04,18,17,34,11.10
2011,04,18,17,35,11.10
2011,04,18,17,36,11.10
2011,04,18,17,37,11.10
2011,04,18,17,38,11.10
2011,04,18,17,39,11.10
2011,04,18,17,40,11.10
2011,04,18,17,41,11.10
2011,04,18,17,42,11.10
2011,04,18,17,43,11.10
2011,04,18,17,44,11.10
2011,04,18,17,45,11.00
2011,04,18,17,46,10.90
2011,04,18,17,47,10.90
2011,04,18,17,48,10.90
2011,04,18,17,49,10.90
2011,04,18,17,50,10.90
2011,04,18,17,51,10.90
2011,04,18,17,52,10.90
2011,04,18,17,53,10.90
2011,04,18,17,54,11.10
2011,04,18,17,55,11.10
2011,04,18,17,56,11.10
2011,04,18,17,57,11.10
2011,04,18,17,58,11.10
2011,04,18,17,59,11.10
2011,04,18,18,00,10.90